Weather History for EBAW - December, 2012

Change the Weather History Date:

Saturday, December 8, 2012

  Actual Average Record
Temperature  
Mean Temperature 32 °F -  
Max Temperature 37 °F 42 °F 60 °F (2000)
Min Temperature 26 °F 34 °F 21 °F (2003)
Degree Days  
Heating Degree Days 34    
Moisture  
Dew Point 28 °F    
Average Humidity 83    
Maximum Humidity 93    
Minimum Humidity 61    
Precipitation  
Precipitation 0.00 in - - ()
Sea Level Pressure  
Sea Level Pressure 30.15 in    
Wind  
Wind Speed 5 mph ()    
Max Wind Speed 12 mph    
Max Gust Speed -    
Visibility 4.5 miles    
Events      
Averages and records for this station are not official NWS values.
T = Trace of Precipitation, MM = Missing Value Source: Averaged Metar Reports

Daily Weather History Graph

Daily Weather History Graph

Search for Another Location

Airport or City:

Trip Planner

Search our weather history database for the weather conditions in past years. The results will help you decide how hot, cold, wet, or windy it might be!

Date:

Astronomy

Dec. 08, 2012 Rise Set
Actual Time 8:33 AM CET 4:35 PM CET
Civil Twilight 7:53 AM CET 5:14 PM CET
Nautical Twilight 7:11 AM CET 5:56 PM CET
Astronomical Twilight 6:31 AM CET 6:37 PM CET
Moon 2:08 AM CET (12/8) 1:24 PM CET (12/8)
Length of Visible Light 9h 20m
Length of Day
8h 01m
Waning Crescent, 31% of the Moon is Illuminated
Dec 8
Waning Crescent
Dec 13
New
Dec 20
First Quarter
Dec 28
Full
Jan 5
Last Quarter

Hourly Weather History & Observations

Time (CET) Temp. Windchill Dew Point Humidity Pressure Visibility Wind Dir Wind Speed Gust Speed Precip Events Conditions
12:20 AM 33.8 °F 25.8 °F 32.0 °F 93% 29.86 in 1.6 mi NE 10.4 mph - N/A   Overcast
12:50 AM 32.0 °F 25.6 °F 30.2 °F 93% 29.86 in 1.7 mi NE 6.9 mph - N/A   Overcast
1:00 AM 33 °F - 31 °F 89% 29.88 in 2 mi NE 6.7 mph - -   Mist
1:20 AM 33.8 °F 27.7 °F 30.2 °F 87% 29.89 in 3.1 mi NE 6.9 mph - N/A   Overcast
1:50 AM 33.8 °F 27.0 °F 30.2 °F 87% 29.92 in 3.7 mi NE 8.1 mph - N/A   Overcast
2:20 AM 32.0 °F 24.8 °F 30.2 °F 93% 29.92 in 3.7 mi NE 8.1 mph - N/A   Overcast
2:50 AM 32.0 °F 24.8 °F 28.4 °F 87% 29.95 in 4.3 mi NE 8.1 mph - N/A   Overcast
3:20 AM 32.0 °F 26.4 °F 28.4 °F 87% 29.95 in 5.0 mi NE 5.8 mph - N/A   Overcast
3:50 AM 32.0 °F 26.4 °F 28.4 °F 87% 29.98 in 5.6 mi NE 5.8 mph - N/A   Partly Cloudy
4:00 AM 32 °F - 29 °F 82% 29.99 in - NE 6.7 mph - -   Scattered Clouds
4:20 AM 32.0 °F 27.5 °F 28.4 °F 87% 30.01 in 5.6 mi NNE 4.6 mph - N/A   Scattered Clouds
4:50 AM 30.2 °F 25.4 °F 28.4 °F 93% 30.01 in 4.3 mi North 4.6 mph - N/A   Unknown
5:20 AM 30.2 °F 24.3 °F 28.4 °F 93% 30.04 in 4.3 mi NNE 5.8 mph - N/A   Unknown
5:50 AM 30.2 °F 24.3 °F 26.6 °F 86% 30.04 in 3.7 mi NNE 5.8 mph - N/A   Unknown
6:20 AM 30.2 °F 24.3 °F 26.6 °F 86% 30.06 in 5.6 mi NNE 5.8 mph - N/A   Unknown
6:50 AM 28.4 °F 22.2 °F 26.6 °F 93% 30.06 in 5.6 mi NNE 5.8 mph - N/A   Unknown
7:00 AM 29 °F - 26 °F 84% 30.09 in 6 mi NNE 4.5 mph - -   Clear
7:20 AM 28.4 °F 24.6 °F 24.8 °F 86% 30.09 in 5.6 mi NNE 3.5 mph - N/A   Unknown
7:50 AM 28.4 °F 23.3 °F 24.8 °F 86% 30.12 in 5.6 mi North 4.6 mph - N/A   Unknown
8:20 AM 28.4 °F 24.6 °F 24.8 °F 86% 30.12 in 5.6 mi NNE 3.5 mph - N/A   Unknown
8:50 AM 26.6 °F - 23.0 °F 86% 30.15 in 4.3 mi Variable 2.3 mph - N/A   Unknown
9:20 AM 28.4 °F 24.6 °F 24.8 °F 86% 30.15 in 4.3 mi NNE 3.5 mph - N/A   Unknown
9:50 AM 28.4 °F 24.6 °F 24.8 °F 86% 30.18 in 4.3 mi NNE 3.5 mph - N/A   Unknown
10:20 AM 30.2 °F 26.7 °F 26.6 °F 86% 30.18 in 4.3 mi NNE 3.5 mph - N/A   Unknown
10:50 AM 30.2 °F 26.7 °F 26.6 °F 86% 30.21 in 4.3 mi NNE 3.5 mph - N/A   Unknown
11:20 AM 32.0 °F - 28.4 °F 87% 30.21 in 5.0 mi Variable 2.3 mph - N/A   Unknown
11:50 AM 33.8 °F - 28.4 °F 81% 30.21 in 5.6 mi Variable 1.2 mph - N/A   Unknown
12:20 PM 33.8 °F - 28.4 °F 81% 30.21 in 5.6 mi Variable 1.2 mph - N/A   Unknown
12:50 PM 33.8 °F 30.8 °F 28.4 °F 81% 30.21 in 5.6 mi SSE 3.5 mph - N/A   Unknown
1:00 PM 35 °F - 28 °F 66% 30.24 in 6 mi SSE 2.2 mph - -   Clear
1:20 PM 33.8 °F - 26.6 °F 75% 30.21 in 5.6 mi Variable 1.2 mph - N/A   Unknown
1:50 PM 35.6 °F - 26.6 °F 70% 30.24 in - Calm Calm - N/A   Clear
2:20 PM 37.4 °F - 26.6 °F 65% 30.24 in - Variable 1.2 mph - N/A   Clear
2:50 PM 35.6 °F - 26.6 °F 70% 30.24 in - Variable 2.3 mph - N/A   Clear
3:20 PM 35.6 °F 32.8 °F 26.6 °F 70% 30.24 in - WSW 3.5 mph - N/A   Clear
3:50 PM 35.6 °F 31.7 °F 26.6 °F 70% 30.24 in - SW 4.6 mph - N/A   Clear
4:00 PM 35 °F - 27 °F 61% 30.25 in 6 mi SW 4.5 mph - -   Clear
4:20 PM 33.8 °F 30.8 °F 26.6 °F 75% 30.27 in - SW 3.5 mph - N/A   Clear
4:50 PM 33.8 °F 28.6 °F 28.4 °F 81% 30.27 in 5.6 mi SSW 5.8 mph - N/A   Unknown
5:20 PM 33.8 °F 29.6 °F 28.4 °F 81% 30.27 in 5.0 mi SW 4.6 mph - N/A   Unknown
5:50 PM 32.0 °F 28.7 °F 28.4 °F 87% 30.27 in 5.0 mi SSW 3.5 mph - N/A   Unknown
6:20 PM 32.0 °F 28.7 °F 28.4 °F 87% 30.27 in 4.3 mi SSW 3.5 mph - N/A   Mostly Cloudy
6:50 PM 33.8 °F 28.6 °F 28.4 °F 81% 30.27 in 4.3 mi SW 5.8 mph - N/A   Mostly Cloudy
7:00 PM 33 °F - 28 °F 77% 30.30 in 4 mi SW 4.5 mph - -   Mostly Cloudy
7:20 PM 33.8 °F 28.6 °F 28.4 °F 81% 30.30 in 4.3 mi SW 5.8 mph - N/A   Mostly Cloudy
7:50 PM 32.0 °F 26.4 °F 28.4 °F 87% 30.30 in 4.3 mi SW 5.8 mph - N/A   Scattered Clouds
8:20 PM 32.0 °F 25.6 °F 28.4 °F 87% 30.30 in 4.3 mi SW 6.9 mph - N/A   Scattered Clouds
8:50 PM 32.0 °F 24.2 °F 28.4 °F 87% 30.27 in 4.3 mi SW 9.2 mph - N/A   Scattered Clouds
9:20 PM 32.0 °F 24.2 °F 28.4 °F 87% 30.27 in 4.3 mi SW 9.2 mph - N/A   Mostly Cloudy
9:50 PM 32.0 °F 24.2 °F 28.4 °F 87% 30.27 in 4.3 mi SW 9.2 mph - N/A   Mostly Cloudy
10:00 PM 33 °F - 28 °F 76% 30.29 in 4 mi SW 8.9 mph - -   Mostly Cloudy
10:20 PM 33.8 °F 26.4 °F 28.4 °F 81% 30.27 in 4.3 mi SW 9.2 mph - N/A   Mostly Cloudy
10:50 PM 33.8 °F 25.3 °F 28.4 °F 81% 30.27 in 3.7 mi SW 11.5 mph - N/A   Overcast
11:20 PM 33.8 °F 25.8 °F 28.4 °F 81% 30.27 in 3.7 mi SW 10.4 mph - N/A   Overcast
11:50 PM 33.8 °F 25.8 °F 28.4 °F 81% 30.24 in 4.3 mi SW 10.4 mph - N/A   Overcast